Location: *
(46.0770°N, 1.6444°E)
Time: 10:07:33
(UTC+00:00)

Daily predictions for brighter satellites

Satellite Brightness Start Highest point End
(mag) Time Altitude Azimuth Time Altitude Azimuth Time Altitude Azimuth
GP-B 3.8 18:25:22 10° NNE 18:29:27 34° E 18:33:28 10° SSE
ATLAS 2AS CENTAUR R/B 3.4 18:22:05 10° NW 18:29:37 48° NE 18:36:33 10° ESE
H-2A R/B 3.5 18:27:35 10° ESE 18:30:54 18° ENE 18:34:16 10° NNE
Cosmos 1544 4.4 18:31:32 10° SE 18:34:14 20° E 18:36:57 10° NE
Cosmos 2237 Rocket 3.7 18:30:12 10° N 18:34:19 20° NE 18:38:25 10° E
Cosmos 2251 Rocket 3.7 18:29:33 10° NNW 18:34:53 58° ENE 18:40:10 10° SE
Cosmos 1441 Rocket 4.4 18:34:27 10° SE 18:37:27 22° E 18:40:26 10° NE
Envisat 4.4 18:33:34 10° S 18:38:24 43° W 18:43:16 10° NNW
Cosmos 2315 Rocket 4.4 18:32:13 10° SSW 18:38:28 70° W 18:44:42 10° N
SAR-Lupe-2 4.5 18:35:39 10° NE 18:38:47 28° E 18:41:53 10° SSE
GEOS 3 Rocket 3.6 18:34:58 10° SE 18:40:06 89° ENE 18:45:16 10° NW
Aureole 1 Rocket 3.6 18:38:27 10° NNW 18:43:59 49° ENE 18:48:09 10° SE
MOS 1 4.5 18:39:33 10° SE 18:45:05 54° ENE 18:50:37 10° N
Timation 2 Rocket 4.2 18:38:51 10° S 18:45:16 54° ESE 18:51:27 10° NE
Genesis I 4.5 18:42:11 10° NW 18:45:56 41° WSW 18:49:34 10° S
SJ-6B 3.9 18:43:49 10° SE 18:47:22 28° ENE 18:50:55 10° N
Nadezhda 1 Rocket 4.2 18:42:02 10° SSE 18:47:43 44° E 18:53:26 10° NNE
Cosmos 1939 Rocket 2.7 18:45:50 10° SSE 18:49:41 86° ENE 18:53:35 10° NNW
Cosmos 1536 Rocket 3.5 18:45:45 10° N 18:50:05 76° E 18:54:25 10° SSE
Cosmos 2322 Rocket 4.3 18:48:33 10° NW 18:53:19 29° WSW 18:58:06 10° SSW
YAOGAN 1 4.2 18:52:20 10° SSW 18:56:21 38° W 19:00:25 10° NNW
Cosmos 1025 Rocket 2.9 18:52:34 10° N 18:56:52 75° E 19:01:07 10° SSE
Cosmos 1707 3.8 18:53:52 10° NNE 18:57:15 27° ENE 19:00:07 13° SE
ASTEX 1 3.8 18:54:10 10° NNE 18:58:46 40° E 19:03:20 10° SSE
CZ-2C R/B 4.0 18:54:38 10° NNE 18:58:52 40° E 19:03:02 10° SSE
USA 32 4.3 18:55:22 10° N 19:00:37 75° W 19:05:50 10° S
Meteor 2-15 4.4 18:55:20 10° S 19:01:26 72° E 19:07:34 10° NNE
SL-16 R/B 4.1 18:59:13 10° N 19:02:20 15° NE 19:05:26 10° ENE
Cosmos 2333 4.2 18:56:51 10° NNW 19:02:33 86° ENE 19:08:15 10° SSE
Cosmos 389 Rocket 4.0 19:01:04 10° NNE 19:03:33 18° ENE 19:04:27 17° E
NOSS 0 Rocket 4.4 18:59:18 10° NNW 19:05:13 44° NE 19:10:04 15° ESE
Cosmos 1378 3.7 19:02:26 10° NNW 19:06:11 62° W 19:09:53 10° S
CZ-2C R/B 4.3 19:04:05 15° ESE 19:07:04 24° ENE 19:11:19 10° N
Meteor 1-12 Rocket 4.2 19:01:25 10° S 19:07:07 70° E 19:12:47 10° NNE
COSMOS 2428 2.7 19:04:55 10° NNW 19:10:37 71° ENE 19:16:11 10° SE
Meteor 1-4 Rocket 4.0 19:11:26 10° NNE 19:14:03 19° ENE 19:14:27 18° ENE
Cosmos 2322 4.1 19:09:00 10° NNW 19:14:41 65° WSW 19:20:20 10° SSE
Cosmos 2219 Rocket 2.1 19:09:28 10° NNW 19:15:05 74° ENE 19:20:21 12° SSE
Cosmos 2151 Rocket 4.3 19:11:31 10° SSW 19:15:51 58° WNW 19:20:13 10° N
Cosmos 2341 Rocket 4.3 19:12:34 10° N 19:18:35 46° ENE 19:23:53 13° SE
Lacrosse 4 Rocket 4.2 19:18:01 10° WNW 19:20:11 14° WSW 19:22:20 10° SW
Ariane Rocket 3.9 19:15:40 10° S 19:20:34 51° W 19:25:31 10° NNW
Cosmos 2074 Rocket 4.5 19:16:45 10° NNW 19:22:57 64° W 19:29:04 10° S
Cosmos 2056 Rocket 4.5 19:20:57 10° SSE 19:25:24 26° E 19:29:51 10° NE
Cosmos 2360 Rocket 3.9 19:20:27 10° NW 19:25:26 33° WSW 19:30:24 10° SSW
FREGAT/IRIS 3.3 19:25:15 10° S 19:27:58 49° W 19:30:43 10° NNW
Cosmos 407 Rocket 3.9 19:28:02 10° N 19:32:58 43° ENE 19:35:14 27° ESE
SL-08 RB Rocket 4.2 19:31:35 26° ESE 19:33:40 41° ENE 19:38:04 10° N
CZ-2C R/B 4.4 19:31:30 10° NE 19:33:15 14° ENE 19:33:15 14° ENE
Cosmos 2219 3.5 19:30:04 10° S 19:35:26 42° ESE 19:40:49 10° NE
NOSS 3-4 (A) 3.8 19:30:09 10° NW 19:37:07 72° NE 19:42:04 24° SE
NOSS 3-4 (C) 3.9 19:30:15 10° NW 19:37:13 72° NE 19:42:08 24° SE
SPOT 3 Rocket 3.5 19:32:43 10° SSE 19:37:52 90° ENE 19:43:03 10° NNW
Cosmos 2227 Rocket 3.1 19:38:55 26° E 19:38:55 26° E 19:43:02 10° NE
Cosmos 1461 2.9 19:35:31 10° SW 19:39:31 73° NW 19:43:29 10° NNE
Cosmos 1437 Rocket 4.3 19:38:41 10° NNE 19:40:57 20° NE 19:40:57 20° NE
Cosmos 2218 Rocket 4.5 19:35:40 10° N 19:41:43 42° ENE 19:44:33 27° SE
Cosmos 614 Rocket 4.3 19:36:39 10° NNW 19:41:44 49° ENE 19:43:49 32° ESE
Cosmos 2154 Rocket 4.2 19:36:55 10° NNW 19:43:06 75° W 19:49:17 10° S
Cosmos 1455 Rocket 3.7 19:44:42 34° E 19:44:42 34° E 19:48:44 10° NNE
SL-8 R/B 3.6 19:42:02 10° WSW 19:46:51 88° NNW 19:49:21 29° ENE
Cosmos 2366 rocket 4.4 19:43:27 10° N 19:49:32 45° ENE 19:52:02 31° SE
Cosmos 2297 Rocket 2.7 19:48:53 32° ESE 19:49:36 34° ESE 19:54:38 10° NE
Cosmos 405 Rocket 3.2 19:54:01 39° NE 19:54:01 39° NE 19:56:44 10° NNE
ARGOS 3.1 19:49:52 20° SSE 19:53:39 85° ENE 19:59:04 10° NNW
USA 186 3.3 19:51:57 13° SSW 19:54:42 38° W 19:57:56 10° NNW
Meteor 1-24 Rocket 4.3 19:51:23 10° N 19:56:43 38° ENE 19:57:50 35° E
Resurs 01 Rocket 1.7 19:55:57 46° ESE 19:56:57 58° ENE 20:01:20 10° N
Resurs 1-3 3.5 19:55:47 39° SSE 19:57:20 76° ENE 20:01:44 10° N
Spot 2 Rocket 4.0 19:57:18 36° E 19:58:03 38° ENE 20:02:41 10° N
COSMOS 2455 4.3 19:53:44 10° NW 19:59:02 33° WSW 20:04:17 10° S
USA 234 4.5 19:54:50 11° ENE 20:00:21 34° N 20:06:07 10° WNW
SL-8 Rocket 3.9 19:55:30 10° N 20:01:42 68° E 20:04:44 31° SSE
Cosmos 2333 Rocket 3.1 19:58:26 10° NW 20:03:52 47° WSW 20:08:27 14° S
Okean 1 Rocket 4.3 19:59:47 10° SSW 20:03:53 41° WNW 20:08:01 10° N
Cosmos 1140 Rocket 3.6 20:00:44 10° NNW 20:05:51 55° ENE 20:06:49 48° ESE
Meteor 2-5 Rocket 3.8 20:01:07 10° N 20:06:52 61° ENE 20:08:42 42° SE
Cosmos 1371 Rocket 3.9 20:02:36 10° S 20:07:52 70° ESE 20:13:12 10° NNE
H-2A R/B 2.2 20:06:40 22° S 20:09:49 65° WSW 20:14:48 10° NNW
SL-24 R/B 4.1 20:10:06 57° SE 20:10:58 77° ENE 20:15:45 10° N
ADEOS Rocket 3.5 20:09:21 10° NNE 20:16:35 89° WNW 20:24:19 10° SSW
Cosmos 1959 Rocket 4.3 20:10:50 10° N 20:16:57 72° E 20:19:02 43° SSE
Terra 4.0 20:18:42 14° NE 20:18:42 14° NE 20:20:12 10° NNE
Cosmos 2237 Rocket 2.1 20:13:25 10° NNW 20:19:10 87° WSW 20:20:51 48° SSE
MetOp-A 4.1 20:18:46 42° S 20:20:42 85° WSW 20:26:06 10° NNW
ATLAS 2AS CENTAUR R/B 3.5 20:13:24 10° NW 20:20:43 51° WSW 20:24:53 24° S
Meteor 2-17 Rocket 4.5 20:17:24 10° NNW 20:23:30 76° W 20:26:43 29° S
Cosmos 676 Rocket 3.9 20:18:14 10° NNW 20:23:30 64° ENE 20:23:53 61° E
In-Cosmos 22 4.4 20:19:15 10° NNW 20:24:32 66° W 20:27:02 32° SSW
Cosmos 1980 3.8 20:22:07 10° NNW 20:27:45 71° WSW 20:29:21 47° S
Meteor 1-22 Rocket 4.4 20:27:37 56° ESE 20:28:04 57° E 20:34:04 10° NNE
Cosmos 1674 3.9 20:29:37 10° N 20:31:52 34° N 20:31:52 34° N
Cosmos 389 Rocket 4.3 20:35:22 10° NW 20:38:19 27° W 20:38:21 27° W
Cosmos 1190 Rocket 4.4 20:35:35 10° NNW 20:40:47 58° WSW 20:41:48 49° SSW
CZ-2C R/B 3.6 20:45:09 42° SSW 20:46:32 53° W 20:51:50 10° NNW
SL-16 R/B 2.3 20:41:58 10° NNW 20:47:27 64° NE 20:47:27 64° NE
Meteor 1-4 Rocket 4.5 20:46:03 10° NNW 20:48:40 27° WNW 20:48:40 27° WNW
Cosmos 2219 Rocket 4.5 20:54:47 10° WNW 20:58:22 18° W 21:01:56 10° SW
DMSP B5D2-2 4.4 20:55:32 10° N 21:00:47 65° WNW 21:01:30 58° WSW
Cosmos 2056 Rocket 4.5 21:02:02 10° SW 21:07:15 47° WNW 21:12:30 10° NNE
SPOT 1/Viking Rocket 4.2 21:09:52 49° N 21:09:52 49° N 21:13:42 10° N
SPOT 5 4.2 21:11:43 32° N 21:11:43 32° N 21:14:32 10° N
CZ-2C R/B 3.0 21:10:11 10° NNE 21:14:46 61° N 21:14:46 61° N
BREEZE-M DEB (TANK) 4.3 21:16:47 10° WNW 21:22:02 85° NNE 21:24:37 55° ESE
Cosmos 2227 Rocket 2.8 21:20:30 40° WSW 21:22:08 53° WNW 21:27:42 10° NNE
Nadezhda 3 Rocket 4.3 21:25:13 59° N 21:25:13 59° N 21:30:11 10° N
Cosmos 2297 Rocket 3.3 21:30:18 22° WSW 21:33:32 42° NW 21:38:54 10° NNE
Resurs 01 Rocket 4.1 21:33:32 16° W 21:33:49 16° W 21:36:30 10° NW
ERS-1 Rocket 4.3 21:40:25 37° NW 21:40:25 37° NW 21:43:32 10° NNW
USA 234 3.8 21:42:11 48° NNE 21:42:31 48° NNE 21:48:45 10° NW
Cosmos 1821 Rocket 4.4 21:38:41 10° NNW 21:43:45 57° NW 21:43:45 57° NW
Terra 3.9 21:57:36 25° NNW 21:57:36 25° NNW 21:59:33 10° NNW
SL-16 R/B 4.4 22:27:05 10° NW 22:29:20 18° WNW 22:29:20 18° WNW
CZ-4C R/B 3.9 23:07:23 10° NNW 23:12:51 37° NNE 23:12:51 37° NNE
Cosmos 2263 Rocket 4.4 23:39:46 21° N 23:39:46 21° N 23:41:46 10° NNE
